{"data":{"norad_id":55312,"intl_designator":"2023-010AV","name":"STARLINK-5296","alt_names":[],"object_type":"PAYLOAD","status":"ACTIVE","operator":null,"country":"US","launch_date":"2023-01-19","launch_site_code":"AFWTR","launch_vehicle":null,"mission":null,"orbit_class":"UNKNOWN","rcs_meters":null,"size_class":null,"mass_kg":null,"dimensions":null,"purposes":["comms"],"wikipedia_slug":null,"has_3d_model":false,"image_url":null,"decayed_at":null,"tle_current":{"epoch":"2026-09-20T22:00:03.000096Z","epoch_age_seconds":60707,"freshness":"FRESH","line1":"1 55312U 23010AV  26263.91670139  .00056068  00000+0  39847-2 0  9994","line2":"2 55312  70.0011 231.9945 0002956 254.9310 271.7440 15.04374451  5763","mean_motion":15.04374451,"eccentricity":0.0002956,"inclination_deg":70.0011,"raan_deg":231.9945,"arg_perigee_deg":254.931,"mean_anomaly_deg":271.744,"bstar":0.0039847,"rev_number":576,"period_min":95.720849223595,"perigee_km":551.37756826477,"apogee_km":555.4755086287,"semimajor_km":6931.5635384467,"source":"CELESTRAK","updated_at":"2026-09-21T09:00:33.174621Z"}}}